ZHONGXING-4A (60606 NORAD) Tracking and Keplerian Element Data

This shows tracking and keplerian element data for the satellite.

Feedback or suggestion? Click here.




ElementValue
Catalog60606
NameZHONGXING-4A
Epoch Orbit61
Epoch Day286.85957622
Epoch Year2024
RAAN277.891
Inclination2.9028
Eccentricity0.0002334
Argument of Perigee351.17
Mean Anonmoly180.5139
Mean Motion1.00274325
Decay Rate-3.68E-06
L11 60606U 24151A 24286.85957622 -.00000368 00000+0 00000+0 0 9993
L22 60606 2.9028 277.8910 0002334 351.1700 180.5139 1.00274325 612



Live tracking and technical data element details for ZHONGXING-4A (NORAD 60606). ZHONGXING-4A can be tracked NOW for your location showing map with azimuth and elevation plus other details from your city location.







IsCatalogInMostPopularTable: catalog: 60606, numindb: 6
Update: records affected: 1



GetName: 60606 ZHONGXING-4A

Hit Count: updated at: Tue, 03 Dec 2024 03:04:10 GMT